[問題] 潛在過失致死的路段(楠梓百慕達)

看板 Kaohsiung
作者
時間
留言 67則留言,26人參與討論
推噓 17  ( 17推 0噓 50→ )
討論串 3
大家好 小弟因上班地點常走民族路與楠陽高架橋 https://lurl.cc/nXdWPq 而最近兩星期遇到兩次逆向,第2次最扯機車直接騎在路中間 騎速至少60KM/hr 小弟因剛好那天有神明保佑有預感會有人逆向 所以一看到燈光馬上踩煞車,對方機車還比我晚煞車 各位要注意那是圓弧路段,會有2/3的視線死角 氣到投訴警察局說因為那邊沒辦法有地下管線 所以沒辦法裝監視器 找市議員好像也沒辦法 同事說之前也有遇過,但都無有效做法 請問各位有辦法解決此事情嗎? 大家可以多轉告高雄親人或有用此路段的朋友 這路段根本就是會被造成過失致死的路段 當天影片 影片時間比實際時間快3小時 https://youtu.be/IBErCiwA8TU
-- ※ 發信站: 批踢踢實業坊(ptt.cc), 來自: 218.166.225.26 (臺灣) ※ 文章網址: https://www.ptt.cc/bbs/Kaohsiung/M.1634039740.A.B4C.html
1Fhantulee: 殺人就是故意了,怎會有過失這名詞? 別亂創法律名 10/12 19:59
2Fhantulee: 詞 10/12 19:59
3Fmt0542281: 他想說過失致死吧 10/12 20:01
※ 編輯: Justin (218.166.225.26 臺灣), 10/12/2021 20:05:14
4Fmt0542281: 整個交通環境都在殺人啊 沒有過失致死 10/12 20:04
Justin:轉錄至看板 Gossiping 10/12 20:07
5Fdendi: 我還真第一次看到摩托車這種騎法,我猜是加工區騎 10/12 20:18
6Fdendi: 出來的想偷雞騎法吧 10/12 20:18
7Fjin956: 應該是抄近路的 10/12 20:25
8Flouis071: 跟樓主相同會車的地方看過,小弟是騎車遇到的,看 10/12 21:00
9Flouis071: 來不是巧合 10/12 21:00
10Fjetalpha: 逆向的肇責百分百,遇到正常的檢察官應該不會起訴 10/12 21:07
11Fjetalpha: 但是對於守法用路人來說被撞是很煩的事,這路段要多 10/12 21:09
12Fjetalpha: 留意,感謝提醒。 10/12 21:09
13Fx173109: 騎加工區捷徑!以前常這樣騎。 10/12 21:31
14Fx173109: 第一天住高雄嗎?看來你還沒遇過高雄式左轉。 10/12 21:31
15Fhlb5828: 高雄式左轉08遇一個檢舉一個,看你有多少1200可以 10/12 21:42
16Fhlb5828: 出啦 10/12 21:42
17Fhantulee: 在高雄,不起訴的機會為零 10/12 21:59
18Fwts1010: 你不知道楠梓交通隊 10/12 22:03
19Fwts1010: 是超被動的嗎?靠警 10/12 22:03
20Fwts1010: 察?別鬧了,要有官 10/12 22:03
21Fwts1010: 員的相關人在那出事 10/12 22:03
22Fwts1010: 才有機會改善吧 10/12 22:03
23Fcloud0528: 高調 10/12 22:27
24FJustin: 這哪是抄近路這樣騎,那邊沒有任何逆向的可能性,他 10/12 22:39
25FJustin: 那樣騎就是直接死 10/12 22:39
26Fkevin979: 身為土生土長的楠梓人,我還真沒遇過有人逆向的, 10/12 22:40
27Fkevin979: 不過樓上網友說楠梓警察很被動這點,我只能說楠梓 10/12 22:40
28Fkevin979: 自我有記憶以來一直都是三不管地帶,搶劫、闖空門 10/12 22:40
29Fkevin979: 、飆車、隨機砍人等等一堆,警察看到還會躲開咧! 10/12 22:40
30FJustin: 我第一次遇到的那個逆向他還知道該靠邊邊騎,這一 10/12 22:44
31FJustin: 次這個根本囂張,根本智障好嗎,這邊很難逆向誒, 10/12 22:44
32FJustin: 相當於你要逆向上高速公路的程度欸 10/12 22:44
33FJOJOw991052: 有可能騎錯嗎?我楠梓三角洲到現在還是沒弄懂 10/12 22:53
34FJOJOw991052: 每次都避開那邊騎車 10/12 22:53
35Fhiimjack: 我常走 現在是還好 騎慢一點看路標沒什麼問題 10/12 22:55
36Fhiimjack: 反而想不出原po遇到的這個到底是怎麼走的== 10/12 22:55
37FJustin: 跟樓上一樣,那要逆向的困難度相當於智商-70诶 10/12 22:56
38Fdandeliontea: 加工區有環(煉油)廠道路可以抄近路, 為何要逆向不 10/12 23:26
39Fdandeliontea: 懂@@ 10/12 23:26
40Fabobstar: 第一次看到有機車騎這方向,不過這樣騎逆向能去哪 10/13 00:20
41Fabobstar: 裏?感覺都不順啊 10/13 00:20
42Fabobstar: 想到了,這八成懶得騎地下道,直接左轉逆向,騎往 10/13 00:25
43Fabobstar: 火車站方向 10/13 00:25
44FHsu971203: 直上直下就好了 真不懂這位在想什麼… 10/13 00:27
45Fandy70612: 後勁溪那條單行道 也是會有偶遇的逆向 10/13 02:04
46Fandy70612: 就是照片再往前面的下一個紅綠燈 10/13 02:05
47Fduacoa: 什麼地方都一樣啦!三寶有在跟你分路段 10/13 08:27
48Fvanurd: 楠梓水準就是這樣 10/13 09:27
49Fenjoyyou: 正常再怎麼騎錯都不會騎到這逆向~ 懂? 10/13 11:18
50Fblitzkrieg: 小弟也是土生土長的楠梓人,在楠梓3X年了確實跟Kevi 10/13 11:24
51Fblitzkrieg: n大說的差不多,不過近期有好ㄧ點啦但還是…. 10/13 11:24
52FJustin: 就是跟enjoy想法一樣,到底要怎樣才能騎錯,非常困 10/13 11:55
53FJustin: 難,智商沒-100都很難 10/13 11:55
54Fblitzkrieg: j大 真的很多智商-100的 10/13 14:04
55Fsolalacicido: 這篇需要高調一下 希望任何人經過那裏都來去平安 10/13 14:57
56FNoeFee: 從回收廠那個地下道上來也遇過兩次逆向的!一上來 10/13 19:45
57FNoeFee: 看到車真的會嚇到! 10/13 19:45
58Fken812025: 官員不會騎狗道 結案 10/13 21:28
59FJasonChou007: 影片畫質稍差,看了2遍,終於看懂原po的路線。開頭 10/14 01:16
60FJasonChou007: 是從興楠路(健仁)往高雄市區,從第一段高架下來, 10/14 01:16
61FJasonChou007: 跟平面車流會合之後,靠左行駛一直到36秒遇到逆向 10/14 01:16
62FJasonChou007: 機車。影片繼續播放到1分8秒,右邊綠燈號誌旁邊是 10/14 01:16
63FJasonChou007: 後來增加的機車地下道,逆向機車應該在這個路口違 10/14 01:16
64FJasonChou007: 規左轉,於是就一路逆向跟原po相遇。機車地下道上 10/14 01:16
65FJasonChou007: 來在路口附近,好像沒看到有禁止左轉的號誌,只看 10/14 01:16
66FJasonChou007: 到一個靠右行駛的藍底白色箭頭,有空我再走一遍, 10/14 01:16
67FJasonChou007: 確認有無號誌不完整造成逆向的可能。 10/14 01:16

完整討論串

17 >> [問題] 潛在過失致死的路段(楠梓百慕達)
67 kaohsiung 2021-10-12 19:55

高雄 最新熱門文章

15 哪裡有守宮可以看看?
23 kaohsiung 2021-11-24 13:47

最新文章

[交易] 嬰幼兒用品
tainan 2021-11-27 17:24
[徵求] ikea代購
tainan 2021-11-27 17:09